Flag for U.S.A. Weather past 2 weeks in Thousand Oaks, California, U.S.A.

Now
64 °F

Clear.


Feels Like: 64 °F
Forecast: 64 / 86 °F
Wind: 3 mph from West

Location: Camarillo Airport

Current Time: Aug 4, 2015 at 3:33:20 AM

Latest Report: Aug 4, 2015 at 2:55 AM


Visibility: 9 mi

Pressure: 29.89 "Hg

Humidity: 78%

Dew point: 57 °F

Location of Thousand OaksLocation

Historic Weather in Thousand Oaks — Graph

°F

Thousand Oaks temperature yesterday

Maximum temperature yesterday: 81 °F (at 2:55 PM)
Minimum temperature yesterday: 62 °F (at 5:55 AM)
Average temperature yesterday: 71 °F

Past Weeks' High & Low Weather Summary

 TemperatureHumidityPressure
High84 °F (Jul 20, 1:55 PM)96% (Jul 21, 4:55 AM)30.09 "Hg (Jul 21, 4:55 AM)
Low61 °F (Jul 28, 3:55 AM)45% (Aug 3, 4:55 PM)29.85 "Hg (Aug 2, 5:55 PM)
Average72 °F73%29.95 "Hg
* Reported Jul 20 1:55 AM — Aug 4 1:55 AM, Thousand Oaks, Weather by CustomWeather, © 2015

Note: Actual official high and low records may vary slightly from our data, if they occured in-between our weather recording intervals... More about our weather records

Advertising

Thousand Oaks weather history for previous 24 hours

 ConditionsComfort  
Time TempWeatherWind HumidityBarometerVisibility
1:55 AM
Tue, Aug 4
65 °FClear.No wind78%29.89 "Hg10 mi
12:55 AM67 °FClear.3 mph76%29.89 "Hg10 mi
11:55 PM
Mon, Aug 3
68 °FClear.No wind73%29.90 "Hg9 mi
10:55 PM67 °FClear.3 mph76%29.90 "Hg10 mi
9:55 PM69 °FClear.3 mph73%29.90 "Hg10 mi
8:55 PM70 °FClear.3 mph71%29.89 "Hg10 mi
7:55 PM71 °FSunny.8 mph68%29.89 "Hg10 mi
6:55 PM74 °FSunny.6 mph62%29.88 "Hg10 mi
5:55 PM75 °FSunny.12 mph58%29.89 "Hg10 mi
4:55 PM80 °FSunny.14 mph45%29.89 "Hg10 mi
3:55 PM80 °FSunny.13 mph51%29.90 "Hg10 mi
2:55 PM81 °FSunny.10 mph47%29.90 "Hg10 mi
1:55 PM79 °FSunny.10 mph52%29.93 "Hg10 mi
12:55 PM79 °FSunny.9 mph54%29.94 "Hg10 mi
11:55 AM78 °FSunny.9 mph54%29.93 "Hg10 mi
10:55 AM78 °FSunny.9 mph56%29.94 "Hg10 mi
9:55 AM75 °FSunny.6 mph62%29.93 "Hg8 mi
8:55 AM72 °FSunny.5 mph68%29.94 "Hg8 mi
7:55 AM69 °FSunny.3 mph73%29.92 "Hg7 mi
6:55 AM64 °FClear.5 mph84%29.91 "Hg7 mi
5:55 AM62 °FClear.5 mph80%29.90 "Hg8 mi
4:55 AM63 °FClear.No wind81%29.89 "Hg8 mi
3:55 AM63 °FClear.3 mph84%29.89 "Hg8 mi
Weather by CustomWeather, © 2015

See weather overviewHow to use our weather pages